Nausori, Fiji

12:12 PM +12 on October 20, 2017 (GMT +1200)
Nausori International

Weather History for NFNA - January, 2007

Change the Weather History Date:

Thursday, January 18, 2007

  Actual Average Record
Temperature  
Mean Temperature 80 °F -  
Max Temperature 85 °F 88 °F - ()
Min Temperature 74 °F 75 °F - ()
Cooling Degree Days 14    
Growing Degree Days 30 (Base 50)    
Moisture  
Dew Point 73 °F    
Average Humidity 79    
Maximum Humidity 96    
Minimum Humidity 59    
Precipitation  
Precipitation 0.04 in 0.39 in - ()
Sea Level Pressure  
Sea Level Pressure 29.76 in    
Wind  
Wind Speed 6 mph ()    
Max Wind Speed 14 mph    
Max Gust Speed -    
Visibility 12.0 miles    
Events Rain    
T = Trace of Precipitation, MM = Missing Value Source: Averaged Metar Reports

Daily Weather History Graph

Daily Weather History Graph

Search for Another Location

Airport or City:

Trip Planner

Search our weather history database for the weather conditions in past years. The results will help you decide how hot, cold, wet, or windy it might be!

Date:

Astronomy

Jan. 18, 2007 Rise Set
Actual Time 5:43 AM +12 6:47 PM +12
Civil Twilight 5:20 AM +12 7:11 PM +12
Nautical Twilight 4:52 AM +12 7:39 PM +12
Astronomical Twilight 4:23 AM +12 8:08 PM +12
Moon 4:16 AM +12 (1/18) 6:06 PM +12 (1/18)
Length of Visible Light 13h 51m
Length of Day
13h 04m
Waning Crescent, 2% of the Moon is Illuminated
Jan 18
Waning Crescent
Jan 19
New
Jan 26
First Quarter
Feb 2
Full
Feb 10
Last Quarter

Hourly Weather History & Observations

Time (+12) Temp. Heat Index Dew Point Humidity Pressure Visibility Wind Dir Wind Speed Gust Speed Precip Events Conditions
12:00 AM 80 °F - 75 °F 80% 29.80 in 12 mi ESE 6.9 mph - -   Partly Cloudy
12:00 AM 80.6 °F 86.2 °F 75.2 °F 84% 29.77 in 24.9 mi ESE 6.9 mph - N/A   Mostly Cloudy
1:00 AM 78.8 °F - 75.2 °F 89% 29.77 in 24.9 mi ESE 4.6 mph - N/A   Scattered Clouds
2:00 AM 78.8 °F - 75.2 °F 89% 29.74 in 24.9 mi ESE 4.6 mph - N/A   Scattered Clouds
3:00 AM 77 °F - 74 °F 89% 29.72 in 12 mi ESE 4.6 mph - -   Partly Cloudy
3:00 AM 77.0 °F - 73.4 °F 89% 29.71 in 24.9 mi ESE 4.6 mph - N/A   Scattered Clouds
4:00 AM 75.2 °F - 73.4 °F 94% 29.71 in 24.9 mi Calm Calm - N/A   Scattered Clouds
5:00 AM 75.2 °F - 73.4 °F 94% 29.74 in 24.9 mi Calm Calm - N/A   Scattered Clouds
6:00 AM 75 °F - 74 °F 96% 29.75 in 31 mi Calm Calm - -   Partly Cloudy
6:00 AM 75.2 °F - 73.4 °F 94% 29.74 in 31.1 mi Calm Calm - N/A   Mostly Cloudy
7:00 AM 77.0 °F - 75.2 °F 94% 29.77 in 31.1 mi Calm Calm - N/A   Mostly Cloudy
8:00 AM 82.4 °F 89.5 °F 75.2 °F 79% 29.77 in 31.1 mi SE 11.5 mph - N/A   Mostly Cloudy
9:00 AM 79 °F - 75 °F 83% 29.79 in 31 mi East 9.2 mph - - Rain Light Rain Showers
9:00 AM 78.8 °F - 75.2 °F 89% 29.77 in 31.1 mi East 9.2 mph - N/A   Overcast
10:00 AM 80.6 °F 85.4 °F 73.4 °F 79% 2.95 in 31.1 mi SE 3.5 mph - N/A Rain Light Rain Showers
11:00 AM 84.2 °F 89.6 °F 71.6 °F 66% 29.77 in 31.1 mi ESE 11.5 mph - N/A   Overcast
12:00 PM 84 °F - 72 °F 60% 29.78 in 31 mi ESE 11.5 mph - -   Partly Cloudy
12:00 PM 84.2 °F 89.6 °F 71.6 °F 66% 29.77 in 31.1 mi ESE 11.5 mph - N/A   Mostly Cloudy
1:00 PM 84.2 °F 89.6 °F 71.6 °F 66% 29.77 in 31.1 mi ESE 13.8 mph - N/A   Mostly Cloudy
2:00 PM 84.2 °F 90.9 °F 73.4 °F 70% 29.74 in 31.1 mi ESE 9.2 mph - N/A   Mostly Cloudy
3:00 PM 85 °F - 73 °F 59% 29.74 in 31 mi ESE 9.2 mph - -   Partly Cloudy
3:00 PM 84.2 °F 90.9 °F 73.4 °F 70% 29.71 in 31.1 mi ESE 9.2 mph - N/A   Mostly Cloudy
4:00 PM 84.2 °F 90.9 °F 73.4 °F 70% 29.71 in 31.1 mi ESE 11.5 mph - N/A   Mostly Cloudy
5:00 PM 84.2 °F 90.9 °F 73.4 °F 70% 29.71 in 31.1 mi SSE 9.2 mph - N/A   Mostly Cloudy
6:00 PM 82 °F - 74 °F 70% 29.75 in 31 mi SE 8.1 mph - -   Partly Cloudy
6:00 PM 82.4 °F 88.2 °F 73.4 °F 74% 29.74 in 31.1 mi SE 8.1 mph - N/A   Scattered Clouds
7:00 PM 80.6 °F 85.4 °F 73.4 °F 79% 29.77 in 31.1 mi ESE 8.1 mph - N/A   Scattered Clouds
8:00 PM 78.8 °F - 71.6 °F 78% 29.77 in 31.1 mi ESE 4.6 mph - N/A   Mostly Cloudy
9:00 PM 79 °F - 71 °F 69% 29.80 in 31 mi ESE 4.6 mph - -   Partly Cloudy
9:00 PM 78.8 °F - 71.6 °F 78% 29.80 in 31.1 mi ESE 4.6 mph - N/A   Partly Cloudy
10:00 PM 78.8 °F - 71.6 °F 78% 29.80 in 31.1 mi ESE 4.6 mph - N/A   Partly Cloudy
11:00 PM 78.8 °F - 71.6 °F 78% 29.80 in 31.1 mi ESE 5.8 mph - N/A   Partly Cloudy